| time (UTC) | temp F | wind direction | speed MPH | gust MPH | rain 1hr in | rain 24hr in | rain mn in | humidity % | barometer mb |
| 20260503234141 | 69 | 132 | 1.0 | 2.0 | 0.00 | 0.00 | 0.00 | 70 | 1021.0 |
| 20260503233638 | 70 | 148 | 0.0 | 0.0 | 0.00 | 0.00 | 0.00 | 69 | 1020.9 |
| 20260503233133 | 70 | 150 | 0.0 | 1.0 | 0.00 | 0.00 | 0.00 | 68 | 1021.0 |
| 20260503232630 | 70 | 159 | 0.0 | 0.0 | 0.00 | 0.00 | 0.00 | 67 | 1020.9 |
| 20260503232128 | 71 | 156 | 1.0 | 2.0 | 0.00 | 0.00 | 0.00 | 65 | 1020.7 |
| 20260503231626 | 71 | 149 | 0.0 | 0.0 | 0.00 | 0.00 | 0.00 | 66 | 1020.8 |
| 20260503231122 | 71 | 127 | 1.0 | 1.0 | 0.00 | 0.00 | 0.00 | 66 | 1021.0 |
| 20260503230619 | 71 | 157 | 0.0 | 1.0 | 0.00 | 0.00 | 0.00 | 65 | 1020.9 |
| 20260503230116 | 72 | 123 | 1.0 | 1.0 | 0.00 | 0.00 | 0.00 | 65 | 1021.1 |
| 20260503225614 | 73 | 121 | 1.0 | 1.0 | 0.00 | 0.00 | 0.00 | 62 | 1021.1 |
| 20260503225113 | 73 | 137 | 0.0 | 1.0 | 0.00 | 0.00 | 0.00 | 63 | 1021.0 |
| 20260503224611 | 73 | 159 | 1.0 | 1.0 | 0.00 | 0.00 | 0.00 | 61 | 1020.9 |
| 20260503224109 | 73 | 164 | 1.0 | 1.0 | 0.00 | 0.00 | 0.00 | 61 | 1020.8 |
| 20260503223606 | 74 | 174 | 2.0 | 2.0 | 0.00 | 0.00 | 0.00 | 60 | 1020.8 |
| 20260503223102 | 74 | 77 | 2.0 | 3.0 | 0.00 | 0.00 | 0.00 | 59 | 1020.9 |
| 20260503222600 | 73 | 59 | 1.0 | 2.0 | 0.00 | 0.00 | 0.00 | 61 | 1020.8 |
| 20260503222058 | 74 | 158 | 1.0 | 1.0 | 0.00 | 0.00 | 0.00 | 60 | 1021.0 |
| 20260503221555 | 74 | 145 | 2.0 | 5.0 | 0.00 | 0.00 | 0.00 | 59 | 1020.8 |
| 20260503221053 | 74 | 104 | 0.0 | 1.0 | 0.00 | 0.00 | 0.00 | 59 | 1020.9 |
| 20260503220549 | 74 | 124 | 1.0 | 1.0 | 0.00 | 0.00 | 0.00 | 59 | 1020.8 |
| 20260503220046 | 75 | 127 | 1.0 | 1.0 | 0.00 | 0.00 | 0.00 | 60 | 1020.8 |
| 20260503215543 | 75 | 96 | 2.0 | 2.0 | 0.00 | 0.00 | 0.00 | 58 | 1020.8 |
| 20260503215040 | 75 | 320 | 2.0 | 3.0 | 0.00 | 0.00 | 0.00 | 59 | 1020.9 |
| 20260503214538 | 75 | 144 | 1.0 | 1.0 | 0.00 | 0.00 | 0.00 | 57 | 1020.8 |
| 20260503214034 | 75 | 109 | 2.0 | 2.0 | 0.00 | 0.00 | 0.00 | 59 | 1020.8 |
| 20260503213533 | 75 | 159 | 2.0 | 2.0 | 0.00 | 0.00 | 0.00 | 60 | 1021.0 |
| 20260503213029 | 75 | 148 | 3.0 | 3.0 | 0.00 | 0.00 | 0.00 | 59 | 1020.9 |
| 20260503212527 | 75 | 43 | 3.0 | 5.0 | 0.00 | 0.00 | 0.00 | 58 | 1021.0 |
| 20260503212024 | 75 | 74 | 5.0 | 6.0 | 0.00 | 0.00 | 0.00 | 59 | 1020.5 |
| 20260503211521 | 76 | 50 | 2.0 | 2.0 | 0.00 | 0.00 | 0.00 | 57 | 1020.9 |
| 20260503211016 | 75 | 165 | 2.0 | 2.0 | 0.00 | 0.00 | 0.00 | 59 | 1020.8 |
| 20260503210513 | 75 | 107 | 4.0 | 6.0 | 0.00 | 0.00 | 0.00 | 56 | 1020.6 |
| 20260503210009 | 76 | 163 | 2.0 | 2.0 | 0.00 | 0.00 | 0.00 | 56 | 1020.7 |
| 20260503205506 | 77 | 313 | 1.0 | 2.0 | 0.00 | 0.00 | 0.00 | 56 | 1020.7 |
| 20260503205002 | 76 | 86 | 5.0 | 7.0 | 0.00 | 0.00 | 0.00 | 57 | 1020.9 |
| 20260503204459 | 77 | 344 | 3.0 | 5.0 | 0.00 | 0.00 | 0.00 | 56 | 1021.2 |
| 20260503203956 | 77 | 166 | 2.0 | 3.0 | 0.00 | 0.00 | 0.00 | 57 | 1021.1 |
| 20260503203454 | 77 | 228 | 2.0 | 3.0 | 0.00 | 0.00 | 0.00 | 57 | 1021.2 |
| 20260503202950 | 75 | 147 | 0.0 | 1.0 | 0.00 | 0.00 | 0.00 | 59 | 1020.7 |
| 20260503202448 | 77 | 173 | 2.0 | 3.0 | 0.00 | 0.00 | 0.00 | 56 | 1020.9 |
| 20260503201947 | 76 | 169 | 1.0 | 1.0 | 0.00 | 0.00 | 0.00 | 57 | 1021.1 |
| 20260503201444 | 76 | 92 | 1.0 | 1.0 | 0.00 | 0.00 | 0.00 | 59 | 1021.0 |
| 20260503200941 | 76 | 17 | 2.0 | 3.0 | 0.00 | 0.00 | 0.00 | 56 | 1021.1 |
| 20260503200437 | 78 | 138 | 1.0 | 2.0 | 0.00 | 0.00 | 0.00 | 55 | 1021.1 |
| 20260503195934 | 77 | 159 | 1.0 | 1.0 | 0.00 | 0.00 | 0.00 | 56 | 1021.2 |
| 20260503195431 | 75 | 64 | 1.0 | 2.0 | 0.00 | 0.00 | 0.00 | 60 | 1021.4 |
| 20260503194927 | 76 | 126 | 2.0 | 2.0 | 0.00 | 0.00 | 0.00 | 58 | 1021.4 |
| 20260503194425 | 77 | 155 | 1.0 | 1.0 | 0.00 | 0.00 | 0.00 | 61 | 1021.4 |
| 20260503193920 | 77 | 143 | 1.0 | 2.0 | 0.00 | 0.00 | 0.00 | 58 | 1021.5 |
| 20260503193416 | 76 | 97 | 2.0 | 5.0 | 0.00 | 0.00 | 0.00 | 59 | 1021.8 |
| 20260503192911 | 77 | 102 | 2.0 | 2.0 | 0.00 | 0.00 | 0.00 | 54 | 1021.8 |
| 20260503192408 | 76 | 165 | 1.0 | 1.0 | 0.00 | 0.00 | 0.00 | 60 | 1021.6 |
| 20260503191904 | 77 | 33 | 2.0 | 2.0 | 0.00 | 0.00 | 0.00 | 58 | 1021.7 |
| 20260503191401 | 76 | 100 | 1.0 | 2.0 | 0.00 | 0.00 | 0.00 | 57 | 1022.0 |
| 20260503190857 | 78 | 171 | 1.0 | 1.0 | 0.00 | 0.00 | 0.00 | 56 | 1022.1 |
| 20260503190355 | 77 | 147 | 2.0 | 2.0 | 0.00 | 0.00 | 0.00 | 56 | 1022.0 |
| 20260503185852 | 77 | 147 | 1.0 | 1.0 | 0.00 | 0.00 | 0.00 | 56 | 1022.3 |
| 20260503185348 | 75 | 112 | 1.0 | 1.0 | 0.00 | 0.00 | 0.00 | 58 | 1022.2 |
| 20260503184848 | 76 | 111 | 0.0 | 1.0 | 0.00 | 0.00 | 0.00 | 59 | 1022.1 |
| 20260503184344 | 76 | 128 | 4.0 | 6.0 | 0.00 | 0.00 | 0.00 | 56 | 1022.4 |
| 20260503183840 | 76 | 141 | 3.0 | 3.0 | 0.00 | 0.00 | 0.00 | 59 | 1022.7 |
| 20260503183337 | 77 | 154 | 3.0 | 5.0 | 0.00 | 0.00 | 0.00 | 57 | 1022.3 |
| 20260503182835 | 77 | 13 | 4.0 | 6.0 | 0.00 | 0.00 | 0.00 | 58 | 1022.6 |
| 20260503182334 | 77 | 148 | 1.0 | 1.0 | 0.00 | 0.00 | 0.00 | 60 | 1022.5 |
| 20260503181830 | 76 | 86 | 3.0 | 5.0 | 0.00 | 0.00 | 0.00 | 61 | 1022.6 |
| 20260503181327 | 76 | 115 | 1.0 | 2.0 | 0.00 | 0.00 | 0.00 | 59 | 1022.7 |
| 20260503180824 | 75 | 214 | 3.0 | 3.0 | 0.00 | 0.00 | 0.00 | 62 | 1022.8 |
| 20260503180322 | 75 | 74 | 3.0 | 6.0 | 0.00 | 0.00 | 0.00 | 59 | 1022.7 |
| 20260503175818 | 75 | 148 | 1.0 | 1.0 | 0.00 | 0.00 | 0.00 | 62 | 1022.6 |
| 20260503175316 | 76 | 45 | 3.0 | 7.0 | 0.00 | 0.00 | 0.00 | 60 | 1022.7 |
| 20260503174811 | 76 | 79 | 4.0 | 7.0 | 0.00 | 0.00 | 0.00 | 58 | 1022.7 |
| 20260503174310 | 75 | 335 | 1.0 | 2.0 | 0.00 | 0.00 | 0.00 | 64 | 1023.0 |
| 20260503173805 | 75 | 158 | 2.0 | 2.0 | 0.00 | 0.00 | 0.00 | 62 | 1022.9 |
| 20260503173301 | 74 | 132 | 2.0 | 2.0 | 0.00 | 0.00 | 0.00 | 64 | 1022.7 |
| 20260503172758 | 74 | 78 | 2.0 | 2.0 | 0.00 | 0.00 | 0.00 | 64 | 1022.8 |
| 20260503172256 | 76 | 1 | 3.0 | 6.0 | 0.00 | 0.00 | 0.00 | 60 | 1022.8 |
| 20260503171752 | 75 | 160 | 2.0 | 2.0 | 0.00 | 0.00 | 0.00 | 61 | 1022.9 |
| 20260503171249 | 75 | 101 | 2.0 | 2.0 | 0.00 | 0.00 | 0.00 | 63 | 1023.1 |
| 20260503170746 | 74 | 155 | 2.0 | 3.0 | 0.00 | 0.00 | 0.00 | 61 | 1022.7 |
| 20260503170243 | 73 | 50 | 3.0 | 3.0 | 0.00 | 0.00 | 0.00 | 63 | 1023.1 |
| 20260503160205 | 74 | 128 | 2.0 | 3.0 | 0.00 | 0.00 | 0.00 | 64 | 1023.0 |
| 20260503150635 | 73 | 121 | 2.0 | 2.0 | 0.00 | 0.00 | 0.00 | 65 | 1022.8 |
| 20260503150131 | 72 | 121 | 3.0 | 6.0 | 0.00 | 0.00 | 0.00 | 67 | 1022.6 |
| 20260503131025 | 68 | 126 | 1.0 | 1.0 | 0.00 | 0.00 | 0.00 | 82 | 1021.4 |
| 20260503130522 | 67 | 116 | 0.0 | 2.0 | 0.00 | 0.00 | 0.00 | 83 | 1021.6 |
| 20260503110413 | 59 | 156 | 0.0 | 1.0 | 0.00 | 0.00 | 0.00 | 97 | 1020.6 |
| 20260503090304 | 59 | 165 | 0.0 | 0.0 | 0.00 | 0.00 | 0.00 | 96 | 1019.5 |
| 20260503081236 | 59 | 192 | 0.0 | 1.0 | 0.00 | 0.00 | 0.00 | 96 | 1019.6 |
| 20260503080732 | 59 | 161 | 0.0 | 0.0 | 0.00 | 0.00 | 0.00 | 96 | 1019.6 |
| 20260503080229 | 59 | 169 | 1.0 | 1.0 | 0.00 | 0.00 | 0.00 | 96 | 1019.5 |
| 20260503072706 | 60 | 178 | 0.0 | 0.0 | 0.00 | 0.00 | 0.00 | 95 | 1019.1 |
| 20260503072203 | 60 | 190 | 0.0 | 1.0 | 0.00 | 0.00 | 0.00 | 95 | 1019.2 |
| 20260503071659 | 60 | 170 | 0.0 | 0.0 | 0.00 | 0.00 | 0.00 | 95 | 1019.2 |
| 20260503071156 | 60 | 169 | 0.0 | 0.0 | 0.00 | 0.00 | 0.00 | 95 | 1019.2 |
| 20260503070653 | 60 | 181 | 0.0 | 0.0 | 0.00 | 0.00 | 0.00 | 95 | 1019.1 |
| 20260503070151 | 60 | 168 | 0.0 | 0.0 | 0.00 | 0.00 | 0.00 | 95 | 1019.2 |
| 20260503060115 | 61 | 169 | 0.0 | 0.0 | 0.00 | 0.00 | 0.00 | 94 | 1019.1 |
| 20260503055107 | 61 | 169 | 0.0 | 0.0 | 0.00 | 0.00 | 0.00 | 94 | 1019.1 |
| 20260503054602 | 61 | 179 | 1.0 | 1.0 | 0.00 | 0.00 | 0.00 | 94 | 1019.4 |
| 20260503054100 | 62 | 177 | 0.0 | 0.0 | 0.00 | 0.00 | 0.00 | 94 | 1019.2 |
| 20260503053558 | 62 | 185 | 0.0 | 1.0 | 0.00 | 0.00 | 0.00 | 94 | 1019.1 |
| 20260503053055 | 62 | 167 | 1.0 | 2.0 | 0.00 | 0.00 | 0.00 | 94 | 1019.0 |
| 20260503052552 | 62 | 178 | 0.0 | 1.0 | 0.00 | 0.00 | 0.00 | 94 | 1019.1 |
| 20260503052048 | 62 | 195 | 0.0 | 0.0 | 0.00 | 0.00 | 0.00 | 94 | 1018.9 |
| 20260503051544 | 62 | 165 | 0.0 | 0.0 | 0.00 | 0.00 | 0.00 | 94 | 1019.0 |
| 20260503051042 | 62 | 209 | 1.0 | 2.0 | 0.00 | 0.00 | 0.00 | 94 | 1019.2 |
| 20260503050537 | 62 | 176 | 1.0 | 1.0 | 0.00 | 0.00 | 0.00 | 93 | 1019.3 |
| 20260503050035 | 62 | 183 | 1.0 | 1.0 | 0.00 | 0.00 | 0.00 | 93 | 1019.0 |
| 20260503045532 | 62 | 172 | 3.0 | 5.0 | 0.00 | 0.00 | 0.00 | 93 | 1018.9 |
| 20260503045029 | 63 | 169 | 0.0 | 0.0 | 0.00 | 0.00 | 0.00 | 93 | 1018.8 |
| 20260503044526 | 63 | 177 | 1.0 | 2.0 | 0.00 | 0.00 | 0.00 | 93 | 1018.6 |
| 20260503044024 | 63 | 184 | 1.0 | 1.0 | 0.00 | 0.00 | 0.00 | 93 | 1018.9 |
| 20260503043519 | 63 | 225 | 2.0 | 2.0 | 0.00 | 0.00 | 0.00 | 93 | 1018.6 |
| 20260503043016 | 63 | 165 | 0.0 | 0.0 | 0.00 | 0.00 | 0.00 | 93 | 1018.6 |
| 20260503042513 | 63 | 274 | 0.0 | 1.0 | 0.00 | 0.00 | 0.00 | 93 | 1018.5 |
| 20260503042009 | 63 | 164 | 0.0 | 0.0 | 0.00 | 0.00 | 0.00 | 93 | 1018.6 |
| 20260503041507 | 63 | 181 | 1.0 | 1.0 | 0.00 | 0.00 | 0.00 | 93 | 1018.3 |
| 20260503041004 | 63 | 178 | 1.0 | 1.0 | 0.00 | 0.00 | 0.00 | 93 | 1018.2 |
| 20260503040501 | 63 | 164 | 0.0 | 0.0 | 0.00 | 0.00 | 0.00 | 93 | 1018.1 |
| 20260503035958 | 64 | 175 | 0.0 | 1.0 | 0.00 | 0.66 | 0.66 | 93 | 1018.2 |
| 20260503035455 | 64 | 216 | 0.0 | 0.0 | 0.00 | 0.66 | 0.66 | 93 | 1018.1 |
| 20260503034953 | 64 | 170 | 0.0 | 0.0 | 0.00 | 0.66 | 0.66 | 93 | 1018.1 |
| 20260503034450 | 64 | 164 | 0.0 | 0.0 | 0.00 | 0.66 | 0.66 | 93 | 1017.9 |
| 20260503033947 | 64 | 184 | 1.0 | 1.0 | 0.00 | 0.66 | 0.66 | 93 | 1018.1 |
| 20260503033444 | 64 | 173 | 0.0 | 0.0 | 0.00 | 0.66 | 0.66 | 93 | 1018.0 |
| 20260503032942 | 64 | 178 | 1.0 | 2.0 | 0.00 | 0.66 | 0.66 | 93 | 1017.6 |
| 20260503032440 | 64 | 158 | 1.0 | 1.0 | 0.00 | 0.66 | 0.66 | 93 | 1017.7 |
| 20260503031937 | 64 | 177 | 1.0 | 1.0 | 0.00 | 0.66 | 0.66 | 93 | 1017.4 |
| 20260503031435 | 64 | 172 | 0.0 | 1.0 | 0.00 | 0.66 | 0.66 | 93 | 1018.0 |
| 20260503030932 | 64 | 160 | 1.0 | 2.0 | 0.00 | 0.66 | 0.66 | 93 | 1017.8 |
| 20260503030428 | 64 | 193 | 2.0 | 5.0 | 0.00 | 0.66 | 0.66 | 93 | 1017.9 |
| 20260503025925 | 64 | 266 | 1.0 | 1.0 | 0.00 | 0.66 | 0.66 | 93 | 1017.7 |
| 20260503025417 | 64 | 151 | 1.0 | 1.0 | 0.00 | 0.66 | 0.66 | 93 | 1017.7 |
| 20260503024914 | 64 | 349 | 2.0 | 3.0 | 0.00 | 0.66 | 0.66 | 94 | 1017.5 |
| 20260503024410 | 64 | 172 | 2.0 | 2.0 | 0.05 | 0.66 | 0.66 | 94 | 1017.2 |
| 20260503023907 | 64 | 127 | 1.0 | 1.0 | 0.05 | 0.66 | 0.66 | 94 | 1016.8 |
| 20260503023404 | 64 | 151 | 0.0 | 0.0 | 0.00 | 0.65 | 0.65 | 94 | 1017.1 |
| 20260503022901 | 65 | 163 | 2.0 | 2.0 | 0.00 | 0.65 | 0.65 | 94 | 1016.9 |
| 20260503022355 | 65 | 150 | 0.0 | 0.0 | 0.00 | 0.65 | 0.65 | 94 | 1017.0 |
| 20260503021852 | 65 | 223 | 1.0 | 1.0 | 0.00 | 0.65 | 0.65 | 94 | 1016.8 |
| 20260503021349 | 65 | 13 | 2.0 | 2.0 | 0.00 | 0.65 | 0.65 | 94 | 1017.0 |
| 20260503020846 | 65 | 158 | 0.0 | 1.0 | 0.00 | 0.65 | 0.65 | 94 | 1016.9 |
| 20260503020344 | 65 | 264 | 2.0 | 3.0 | 0.00 | 0.65 | 0.65 | 94 | 1016.9 |
| 20260503015840 | 66 | 200 | 5.0 | 7.0 | 0.00 | 0.65 | 0.65 | 94 | 1016.4 |
| 20260503015337 | 66 | 175 | 1.0 | 2.0 | 0.00 | 0.65 | 0.65 | 95 | 1016.7 |
| 20260503014832 | 67 | 181 | 2.0 | 5.0 | 0.00 | 0.65 | 0.65 | 95 | 1016.4 |
| 20260503014330 | 68 | 168 | 0.0 | 1.0 | 0.00 | 0.65 | 0.65 | 95 | 1016.2 |
| 20260503013827 | 68 | 159 | 0.0 | 1.0 | 0.00 | 0.65 | 0.65 | 95 | 1015.8 |
| 20260503013325 | 68 | 140 | 1.0 | 1.0 | 0.00 | 0.65 | 0.65 | 95 | 1015.6 |
| 20260503012822 | 68 | 165 | 0.0 | 1.0 | 0.00 | 0.65 | 0.65 | 95 | 1015.6 |
| 20260503012319 | 68 | 223 | 1.0 | 2.0 | 0.00 | 0.65 | 0.65 | 95 | 1015.8 |
| 20260503011816 | 69 | 167 | 0.0 | 1.0 | 0.00 | 0.65 | 0.65 | 95 | 1015.9 |
| 20260503011313 | 69 | 161 | 0.0 | 0.0 | 0.00 | 0.65 | 0.65 | 95 | 1015.7 |
| 20260503010809 | 69 | 148 | 0.0 | 0.0 | 0.00 | 0.65 | 0.65 | 95 | 1015.8 |
| 20260503010307 | 69 | 165 | 0.0 | 0.0 | 0.00 | 0.65 | 0.65 | 94 | 1016.0 |
| 20260503005804 | 69 | 168 | 0.0 | 0.0 | 0.00 | 0.65 | 0.65 | 94 | 1015.8 |
| 20260503005301 | 69 | 180 | 0.0 | 0.0 | 0.00 | 0.65 | 0.65 | 94 | 1015.5 |
| 20260503004756 | 69 | 163 | 0.0 | 0.0 | 0.00 | 0.65 | 0.65 | 94 | 1015.5 |
| 20260503004255 | 69 | 164 | 0.0 | 0.0 | 0.00 | 0.65 | 0.65 | 94 | 1015.5 |
| 20260503003751 | 69 | 168 | 0.0 | 1.0 | 0.07 | 0.65 | 0.65 | 94 | 1015.4 |
| 20260503003249 | 69 | 155 | 0.0 | 0.0 | 0.12 | 0.65 | 0.65 | 93 | 1015.2 |
| 20260503002745 | 69 | 196 | 1.0 | 2.0 | 0.31 | 0.64 | 0.64 | 93 | 1015.2 |
| 20260503002242 | 71 | 54 | 5.0 | 8.0 | 0.19 | 0.62 | 0.62 | 93 | 1014.8 |
| 20260503001738 | 71 | 127 | 1.0 | 2.0 | 0.00 | 0.59 | 0.59 | 93 | 1014.8 |
| 20260503001235 | 71 | 162 | 0.0 | 0.0 | 0.00 | 0.59 | 0.59 | 93 | 1014.8 |
| 20260503000733 | 71 | 171 | 0.0 | 0.0 | 0.00 | 0.59 | 0.59 | 93 | 1014.6 |
| 20260503000230 | 71 | 167 | 0.0 | 0.0 | 0.00 | 0.59 | 0.59 | 93 | 1014.1 |
| 20260502235727 | 71 | 158 | 0.0 | 0.0 | 0.00 | 0.59 | 0.59 | 93 | 1014.2 |
| 20260502235225 | 71 | 167 | 0.0 | 0.0 | 0.00 | 0.59 | 0.59 | 93 | 1014.4 |
| 20260502234721 | 71 | 203 | 3.0 | 3.0 | 0.00 | 0.59 | 0.59 | 93 | 1014.6 |